Regional Weather Roundup
Issued by NWS

Home | Current Version | Previous Version | Text Only | Print | Product List | Glossary Off
Versions: 1 2 3 4 5 6 7 8 9 10 11 12 13 14 15 16 17 18 19 20 21 22 23 24 25 26 27 28 29 30 31 32 33 34 35 36 37 38 39 40 41 42 43 44 45 46 47 48 49 50

000
ASUS43 KIND 021559
RWRIN

WEATHER ROUNDUP FOR INDIANA
NATIONAL WEATHER SERVICE INDIANAPOLIS IN
1200 PM EDT TUE SEP 02 2014

NOTE: "FAIR" INDICATES FEW OR NO CLOUDS BELOW 12,000 FEET WITH NO
SIGNIFICANT WEATHER AND/OR OBSTRUCTIONS TO VISIBILITY.

* - STATION DOES NOT REPORT WEATHER SUCH AS PRECIPITATION OR FOG.

+ - STATION NOT QUALITY CONTROLLED BY THE NATIONAL WEATHER SERVICE.
    USE DATA WITH CAUTION...ESPECIALLY DEWPOINT AND RELATIVE
    HUMIDITY OBSERVATIONS.

INZ001>003-010>013-019-020-021700-
NORTHWEST INDIANA

CITY           SKY/WX    TMP DP  RH WIND       PRES   REMARKS
GARY /AIRPORT/ PTSUNNY   75  68  78 SW7       29.92
KNOX *+        CLOUDY    69  66  90 W3        29.93S
MONTICELLO +   CLOUDY    71  68  88 W6        29.94S
VALPARAISO     CLOUDY    70  67  90 W6        29.93S

$$

LMZ046-743>745-021700-
SOUTHERN LAKE MICHIGAN

STATION/POSITION TIME  TEMP WIND        PRES
                       AIR  DIR/SP/G
                 (UTC) (F)  (DEG/KT/KT) (MB)
MICHIGAN CITY    1500   70  220/ 11/ 12   N/A

$$

INZ004-005-014>016-021>024-021700-
NORTH CENTRAL INDIANA

CITY           SKY/WX    TMP DP  RH WIND       PRES   REMARKS
ELKHART        PTSUNNY   72  66  83 W8        29.94R
GOSHEN         CLOUDY    72  66  81 W10       29.93R
PERU/GRISSOM   CLOUDY    72  72 100 W9        29.95S
SOUTH BEND     LGT RAIN  72  67  84 SW7       29.93R

$$

INZ006>009-017-018-025>027-021700-
NORTHEAST INDIANA

CITY           SKY/WX    TMP DP  RH WIND       PRES   REMARKS
ANGOLA *+      CLOUDY    72  64  78 W8        29.92S
FORT WAYNE     CLOUDY    69  66  90 W10       29.95R

$$

INZ028-029-035-036-043>045-051>053-021700-
WEST CENTRAL INDIANA

CITY           SKY/WX    TMP DP  RH WIND       PRES   REMARKS
GREENCASTLE +  CLOUDY    70  66  88 CALM      29.98S
LAFAYETTE      CLOUDY    70  67  90 SW5       29.95S
TERRE HAUTE    CLOUDY    73  67  81 S6        29.97R

$$

INZ030>032-037>040-046>048-054>057-064-065-021700-
CENTRAL INDIANA

CITY           SKY/WX    TMP DP  RH WIND       PRES   REMARKS
ANDERSON       CLOUDY    73  68  83 W12       29.98R
COLUMBUS       PTSUNNY   72  68  88 SW9       29.97R
FRANKFORT +    CLOUDY    71  71 100 W7        29.98R
INDIANAPOLIS   PTSUNNY   73  67  81 W9        29.96S
-EAGLE CREEK   CLOUDY    72  65  78 VRB3      29.97R
KOKOMO *+      CLOUDY    70  64  83 W10       29.96S
MT COMFORT *+  PTSUNNY   72  72 100 SW5       29.98R
SHELBYVILLE    CLOUDY    75  68  78 SW12      29.97R

$$

INZ033-034-041-042-049-050-058-059-021700-
EAST CENTRAL INDIANA

CITY           SKY/WX    TMP DP  RH WIND       PRES   REMARKS
MUNCIE         CLOUDY    72  65  78 SW10      29.97R

$$

INZ060-061-067>069-081>083-085>088-021700-
SOUTHWEST INDIANA

CITY           SKY/WX    TMP DP  RH WIND       PRES   REMARKS
EVANSVILLE     PTSUNNY   77  71  82 S3        29.97F

$$

INZ062-063-066-070>080-084-089>092-021700-
SOUTH CENTRAL AND SOUTHEAST INDIANA

CITY           SKY/WX    TMP DP  RH WIND       PRES   REMARKS
BLOOMINGTON    LGT RAIN  71  68  90 SW7       29.98R FOG

$$




USA.gov is the U.S. government's official web portal to all federal, state and local government web resources and services.